Previsão horária em Plonina

Hoje, 3 Março, Quarta-feira

Tempo Temperatura Precipitação Vento Pressão Humidade
00:00 +2°C° 0 mm 1 m/s 774 mmHg 94%
01:00 +2°C° 0 mm 1 m/s 774 mmHg 95%
02:00 +1°C° 0 mm 2 m/s 773 mmHg 95%
03:00 +1°C° 0 mm 2 m/s 773 mmHg 95%
04:00 +1°C° 0 mm 2 m/s 772 mmHg 95%
05:00 0°C° 0 mm 3 m/s 772 mmHg 95%
06:00 0°C° 0 mm 3 m/s 772 mmHg 95%
07:00 0°C° 0 mm 3 m/s 772 mmHg 95%
08:00 +1°C° 0 mm 3 m/s 771 mmHg 89%
09:00 +3°C° 0 mm 3 m/s 771 mmHg 83%
10:00 +4°C° 0 mm 3 m/s 770 mmHg 77%
11:00 +5°C° 0 mm 3 m/s 770 mmHg 72%
12:00 +8°C° 0 mm 3 m/s 769 mmHg 66%
13:00 +9°C° 0 mm 3 m/s 769 mmHg 61%
14:00 +9°C° 0 mm 2 m/s 768 mmHg 62%
15:00 +9°C° 0 mm 2 m/s 767 mmHg 62%
16:00 +9°C° 0 mm 2 m/s 766 mmHg 63%
17:00 +7°C° 0 mm 2 m/s 766 mmHg 68%
18:00 +5°C° 0 mm 3 m/s 765 mmHg 73%
19:00 +4°C° 0 mm 3 m/s 765 mmHg 77%
20:00 +3°C° 0 mm 3 m/s 764 mmHg 81%
21:00 +3°C° 0 mm 3 m/s 763 mmHg 85%
22:00 +3°C° 0 mm 3 m/s 762 mmHg 88%
23:00 +3°C° 0 mm 4 m/s 762 mmHg 89%

Amanhã, 4 Março, Quinta-feira

Tempo Temperatura Precipitação Vento Pressão Humidade
00:00 +1°C° 0 mm 4 m/s 761 mmHg 90%
01:00 +1°C° 0 mm 4 m/s 761 mmHg 91%
02:00 +1°C° 0 mm 4 m/s 760 mmHg 91%
03:00 +1°C° 0 mm 4 m/s 759 mmHg 92%
04:00 +1°C° 0 mm 4 m/s 758 mmHg 92%
05:00 +1°C° 0 mm 5 m/s 758 mmHg 92%
06:00 0°C° 0 mm 5 m/s 758 mmHg 92%
07:00 0°C° 0 mm 5 m/s 758 mmHg 92%
08:00 +1°C° 0 mm 5 m/s 758 mmHg 89%
09:00 +1°C° 0 mm 5 m/s 758 mmHg 86%
10:00 +2°C° 0 mm 5 m/s 758 mmHg 83%
11:00 +2°C° 0.1 mm 5 m/s 759 mmHg 85%
12:00 +2°C° 0.1 mm 5 m/s 759 mmHg 87%
13:00 +1°C° 0.1 mm 5 m/s 759 mmHg 89%
14:00 +1°C° 0.2 mm 6 m/s 759 mmHg 90%
15:00 -1°C° 0.2 mm 6 m/s 759 mmHg 90%
16:00 -2°C° 0.2 mm 6 m/s 759 mmHg 91%
17:00 -2°C° 0 mm 6 m/s 760 mmHg 88%
18:00 -2°C° 0 mm 5 m/s 760 mmHg 85%
19:00 -2°C° 0 mm 5 m/s 761 mmHg 83%
20:00 -2°C° 0 mm 4 m/s 761 mmHg 82%
21:00 -2°C° 0 mm 4 m/s 761 mmHg 81%
22:00 -3°C° 0 mm 4 m/s 761 mmHg 80%
23:00 -3°C° 0 mm 4 m/s 762 mmHg 80%

Depois de amanhã, 5 Março, Sexta-feira

Tempo Temperatura Precipitação Vento Pressão Humidade
00:00 -3°C° 0 mm 4 m/s 762 mmHg 79%
01:00 -2°C° 0 mm 4 m/s 762 mmHg 78%
02:00 -3°C° 0 mm 4 m/s 762 mmHg 77%
03:00 -3°C° 0 mm 4 m/s 762 mmHg 76%
04:00 -3°C° 0 mm 4 m/s 762 mmHg 74%
05:00 -3°C° 0 mm 4 m/s 762 mmHg 73%
06:00 -3°C° 0 mm 4 m/s 763 mmHg 72%
07:00 -3°C° 0 mm 4 m/s 763 mmHg 71%
08:00 -2°C° 0.2 mm 4 m/s 763 mmHg 65%
09:00 0°C° 0.2 mm 5 m/s 764 mmHg 59%
10:00 +1°C° 0.2 mm 5 m/s 764 mmHg 53%
11:00 +1°C° 0.1 mm 4 m/s 764 mmHg 53%
12:00 +1°C° 0.1 mm 4 m/s 765 mmHg 52%
13:00 +1°C° 0.1 mm 4 m/s 765 mmHg 51%
14:00 0°C° 0 mm 4 m/s 765 mmHg 53%
15:00 0°C° 0 mm 4 m/s 765 mmHg 54%
16:00 0°C° 0 mm 4 m/s 765 mmHg 55%
17:00 -1°C° 0 mm 4 m/s 766 mmHg 62%
18:00 -2°C° 0 mm 4 m/s 767 mmHg 69%
19:00 -3°C° 0 mm 4 m/s 767 mmHg 76%
20:00 -2°C° 0.1 mm 3 m/s 768 mmHg 77%
21:00 -2°C° 0.1 mm 3 m/s 768 mmHg 78%
22:00 -3°C° 0.1 mm 2 m/s 769 mmHg 78%
23:00 -3°C° 0.1 mm 2 m/s 769 mmHg 75%

6 Março, Sábado

Tempo Temperatura Precipitação Vento Pressão Humidade
00:00 -2°C° 0.1 mm 2 m/s 770 mmHg 72%
01:00 -2°C° 0.1 mm 2 m/s 770 mmHg 69%
02:00 -2°C° 0 mm 3 m/s 770 mmHg 69%
03:00 -4°C° 0 mm 3 m/s 770 mmHg 69%
04:00 -4°C° 0 mm 3 m/s 770 mmHg 70%
05:00 -4°C° 0.1 mm 3 m/s 770 mmHg 71%
06:00 -2°C° 0.1 mm 3 m/s 771 mmHg 72%
07:00 -2°C° 0.1 mm 3 m/s 771 mmHg 72%
08:00 -2°C° 0 mm 4 m/s 771 mmHg 66%
09:00 -1°C° 0 mm 4 m/s 771 mmHg 59%
10:00 0°C° 0 mm 5 m/s 771 mmHg 52%
11:00 +1°C° 0 mm 5 m/s 771 mmHg 49%
12:00 +1°C° 0 mm 5 m/s 770 mmHg 47%
13:00 +2°C° 0 mm 5 m/s 770 mmHg 44%
14:00 +2°C° 0 mm 5 m/s 770 mmHg 46%
15:00 +1°C° 0 mm 6 m/s 769 mmHg 49%
16:00 +1°C° 0 mm 6 m/s 768 mmHg 51%
17:00 -1°C° 0 mm 6 m/s 768 mmHg 56%
18:00 -2°C° 0 mm 7 m/s 767 mmHg 60%
19:00 -4°C° 0 mm 8 m/s 767 mmHg 65%
20:00 -4°C° 0 mm 8 m/s 766 mmHg 71%
21:00 -4°C° 0 mm 8 m/s 766 mmHg 77%
22:00 -2°C° 0 mm 8 m/s 765 mmHg 83%
23:00 -3°C° 0 mm 9 m/s 765 mmHg 83%

7 Março, Domingo

Tempo Temperatura Precipitação Vento Pressão Humidade
00:00 -3°C° 0 mm 9 m/s 764 mmHg 82%
01:00 -3°C° 0 mm 9 m/s 764 mmHg 82%
02:00 -3°C° 0 mm 9 m/s 763 mmHg 83%
03:00 -2°C° 0 mm 8 m/s 763 mmHg 83%
04:00 -2°C° 0 mm 8 m/s 762 mmHg 84%
05:00 -2°C° 0 mm 8 m/s 762 mmHg 84%
06:00 -2°C° 0 mm 8 m/s 762 mmHg 84%
07:00 -1°C° 0 mm 8 m/s 762 mmHg 84%
08:00 -1°C° 0.1 mm 9 m/s 762 mmHg 86%
09:00 -1°C° 0.1 mm 9 m/s 762 mmHg 88%
10:00 -1°C° 0.1 mm 9 m/s 762 mmHg 89%
11:00 -1°C° 0.1 mm 9 m/s 762 mmHg 88%
12:00 -1°C° 0.1 mm 9 m/s 761 mmHg 87%
13:00 0°C° 0.1 mm 8 m/s 761 mmHg 86%
14:00 -1°C° 0.2 mm 8 m/s 761 mmHg 88%
15:00 -1°C° 0.2 mm 8 m/s 761 mmHg 90%
16:00 -1°C° 0.2 mm 8 m/s 761 mmHg 92%
17:00 -1°C° 0.1 mm 7 m/s 760 mmHg 91%
18:00 -2°C° 0.1 mm 7 m/s 760 mmHg 90%
19:00 -2°C° 0.1 mm 7 m/s 760 mmHg 89%
20:00 -2°C° 0.2 mm 7 m/s 759 mmHg 90%
21:00 -2°C° 0.2 mm 7 m/s 759 mmHg 91%
22:00 -2°C° 0.2 mm 7 m/s 759 mmHg 92%
23:00 -2°C° 0.5 mm 7 m/s 759 mmHg 93%

8 Março, Segunda-feira

Tempo Temperatura Precipitação Vento Pressão Humidade
00:00 -2°C° 0.5 mm 7 m/s 759 mmHg 95%
01:00 -2°C° 0.5 mm 7 m/s 758 mmHg 96%
02:00 -2°C° 0.4 mm 6 m/s 758 mmHg 93%
03:00 -3°C° 0.4 mm 6 m/s 758 mmHg 90%
04:00 -4°C° 0.4 mm 5 m/s 758 mmHg 86%
05:00 -3°C° 0 mm 4 m/s 759 mmHg 85%
06:00 -2°C° 0 mm 3 m/s 760 mmHg 83%
07:00 -4°C° 0 mm 3 m/s 760 mmHg 82%
08:00 -3°C° 0.1 mm 4 m/s 761 mmHg 79%
09:00 -1°C° 0.1 mm 5 m/s 762 mmHg 76%
10:00 -1°C° 0.1 mm 7 m/s 763 mmHg 72%
11:00 -2°C° 0.1 mm 7 m/s 763 mmHg 72%
12:00 -2°C° 0.1 mm 7 m/s 764 mmHg 71%
13:00 -2°C° 0.1 mm 7 m/s 764 mmHg 70%
14:00 -3°C° 0 mm 7 m/s 764 mmHg 69%
15:00 -4°C° 0 mm 7 m/s 765 mmHg 68%
16:00 -4°C° 0 mm 7 m/s 765 mmHg 67%
17:00 -5°C° 0 mm 6 m/s 766 mmHg 70%
18:00 -5°C° 0 mm 5 m/s 767 mmHg 72%
19:00 -5°C° 0 mm 4 m/s 767 mmHg 74%
20:00 -5°C° 0 mm 4 m/s 768 mmHg 72%
21:00 -7°C° 0 mm 4 m/s 768 mmHg 70%
22:00 -7°C° 0 mm 4 m/s 769 mmHg 68%
23:00 -7°C° 0 mm 4 m/s 769 mmHg 68%
Mostrar mais

Necessitamos do seu Consentimento

A Meteoprog e os seus Fornecedores de Serviços podem armazenar e aceder a dados pessoais como cookies, identificadores do dispositivo ou outras tecnologias semelhantes existentes no seu dispositivo e processar estes dados para personalizar conteúdos e anúncios, assim como funcionalidades nas redes sociais e análise de tráfego.

  • Armazenar e/ou aceder a informações no seu dispositivo

    Os cookies, identificadores do dispositivo ou outras informações podem ser armazenados ou acedidos no seu dispositivo, para os fins acima indicados.

  • Anúncios e conteúdos personalizados, medição de anúncios e conteúdos, dados sobre o público-alvo e desenvolvimento de produtos

    Os anúncios e os conteúdos podem ser personalizados com base num perfil. Podem ser adicionados dados adicionais para uma maior personalização dos anúncios e dos conteúdos. A eficácia dos anúncios e dos conteúdos pode ser medida. Podem ser obtidas informações sobre o público que visualizou os anúncios e os conteúdos. Estes dados podem ser usados para desenvolver ou melhorar sistemas, softwares ou a experiência do utilizador.

Ao clicar em "Eu concordo”, permitirá o uso de cookies, identificadores do dispositivo e web beacons mencionados ou outras tecnologias semelhantes. As configurações do navegador do seu dispositivo podem ser alteradas.

Para certos fins, podem ser invocados interesses legítimos ao invés de consentimento. Pode ler mais informação sobre este assunto na nossa Política de Privacidade e Cookies.